Time,TemperatureF,DewpointF,PressureIn,WindDirection,WindDirectionDegrees,WindSpeedMPH,WindSpeedGustMPH,Humidity,HourlyPrecipIn,Conditions,Clouds,dailyrainin,SoftwareType,DateUTC
2013-07-05 00:00:00,68.9,61.0,29.98,SW,235,0.0,0.0,76,0.00,,---,0.00,VWS V14.01,2013-07-05 05:00:00,
2013-07-05 00:05:00,68.7,60.8,29.97,East,95,0.0,1.0,76,0.00,,---,0.00,VWS V14.01,2013-07-05 05:05:00,
2013-07-05 00:10:00,68.8,60.9,29.97,South,186,0.0,1.0,76,0.00,,---,0.00,VWS V14.01,2013-07-05 05:10:00,
2013-07-05 00:15:00,68.7,60.8,29.98,SE,133,0.0,1.0,76,0.00,,---,0.00,VWS V14.01,2013-07-05 05:15:00,
2013-07-05 00:20:00,68.6,60.7,29.97,SE,135,0.0,1.0,76,0.00,,---,0.00,VWS V14.01,2013-07-05 05:20:00,
2013-07-05 00:25:00,68.5,60.6,29.97,SE,135,0.0,1.0,76,0.00,,---,0.00,VWS V14.01,2013-07-05 05:25:00,
2013-07-05 00:30:00,68.3,60.8,29.97,ESE,123,1.0,1.0,77,0.00,,---,0.00,VWS V14.01,2013-07-05 05:30:00,
2013-07-05 00:35:00,68.2,60.7,29.97,ESE,122,0.0,2.0,77,0.00,,---,0.00,VWS V14.01,2013-07-05 05:35:00,
2013-07-05 00:41:00,68.3,60.8,29.97,SE,134,1.0,2.0,77,0.00,,---,0.00,VWS V14.01,2013-07-05 05:41:00,
2013-07-05 00:46:00,68.2,60.7,29.97,SSW,212,1.0,2.0,77,0.00,,---,0.00,VWS V14.01,2013-07-05 05:46:00,
2013-07-05 00:51:00,68.0,60.5,29.97,WSW,252,0.0,2.0,77,0.00,,---,0.00,VWS V14.01,2013-07-05 05:51:00,
2013-07-05 00:56:00,67.9,60.8,29.97,SW,231,0.0,2.0,78,0.00,,---,0.00,VWS V14.01,2013-07-05 05:56:00,
2013-07-05 01:00:00,67.8,60.3,29.97,SSW,193,0.0,2.0,77,0.00,,---,0.00,VWS V14.01,2013-07-05 06:00:00,
2013-07-05 01:01:00,67.8,60.7,29.97,South,170,0.0,1.0,78,0.00,,---,0.00,VWS V14.01,2013-07-05 06:01:00,
2013-07-05 01:06:00,67.7,60.2,29.97,SW,218,0.0,2.0,77,0.00,,---,0.00,VWS V14.01,2013-07-05 06:06:00,
2013-07-05 01:11:00,67.6,60.5,29.97,SW,219,0.0,3.0,78,0.00,,---,0.00,VWS V14.01,2013-07-05 06:11:00,
2013-07-05 01:16:00,67.5,60.4,29.97,SE,131,0.0,3.0,78,0.00,,---,0.00,VWS V14.01,2013-07-05 06:16:00,
2013-07-05 01:22:00,67.5,60.4,29.97,SSE,168,0.0,3.0,78,0.00,,---,0.00,VWS V14.01,2013-07-05 06:22:00,
2013-07-05 01:27:00,67.4,60.3,29.97,SSE,148,0.0,3.0,78,0.00,,---,0.00,VWS V14.01,2013-07-05 06:27:00,
2013-07-05 01:30:00,67.4,60.3,29.97,ESE,104,1.0,3.0,78,0.00,,---,0.00,VWS V14.01,2013-07-05 06:30:00,
2013-07-05 01:32:00,67.3,60.2,29.97,SSE,150,0.0,2.0,78,0.00,,---,0.00,VWS V14.01,2013-07-05 06:32:00,
2013-07-05 01:37:00,67.1,60.4,29.96,SE,134,0.0,2.0,79,0.00,,---,0.00,VWS V14.01,2013-07-05 06:37:00,
2013-07-05 01:42:00,66.9,60.2,29.97,SSE,167,0.0,2.0,79,0.00,,---,0.00,VWS V14.01,2013-07-05 06:42:00,
2013-07-05 01:47:00,66.7,60.0,29.97,South,171,0.0,2.0,79,0.00,,---,0.00,VWS V14.01,2013-07-05 06:47:00,
2013-07-05 01:52:00,66.6,60.2,29.97,SE,140,2.0,4.0,80,0.00,,---,0.00,VWS V14.01,2013-07-05 06:52:00,
2013-07-05 01:57:00,66.8,60.1,29.97,SSW,205,1.0,4.0,79,0.00,,---,0.00,VWS V14.01,2013-07-05 06:57:00,
2013-07-05 02:00:00,66.8,60.1,29.97,ESE,110,1.0,4.0,79,0.00,,---,0.00,VWS V14.01,2013-07-05 07:00:00,
2013-07-05 02:02:00,66.9,60.2,29.97,SE,132,0.0,1.0,79,0.00,,---,0.00,VWS V14.01,2013-07-05 07:02:00,
2013-07-05 02:07:00,66.7,60.0,29.97,SE,133,0.0,1.0,79,0.00,,---,0.00,VWS V14.01,2013-07-05 07:07:00,
2013-07-05 02:13:00,66.5,59.8,29.97,WSW,248,0.0,2.0,79,0.00,,---,0.00,VWS V14.01,2013-07-05 07:13:00,
2013-07-05 02:18:00,66.4,59.7,29.97,SSW,199,0.0,2.0,79,0.00,,---,0.00,VWS V14.01,2013-07-05 07:18:00,
2013-07-05 02:23:00,66.3,59.6,29.97,SE,127,1.0,3.0,79,0.00,,---,0.00,VWS V14.01,2013-07-05 07:23:00,
2013-07-05 02:28:00,66.5,59.4,29.97,SE,135,1.0,5.0,78,0.00,,---,0.00,VWS V14.01,2013-07-05 07:28:00,
2013-07-05 02:30:00,66.5,59.4,29.97,South,177,0.0,5.0,78,0.00,,---,0.00,VWS V14.01,2013-07-05 07:30:00,
2013-07-05 02:33:00,66.5,59.4,29.97,SE,141,1.0,2.0,78,0.00,,---,0.00,VWS V14.01,2013-07-05 07:33:00,
2013-07-05 02:38:00,66.3,59.2,29.97,SSE,165,1.0,2.0,78,0.00,,---,0.00,VWS V14.01,2013-07-05 07:38:00,
2013-07-05 02:43:00,66.2,59.2,29.97,South,169,0.0,2.0,78,0.00,,---,0.00,VWS V14.01,2013-07-05 07:43:00,
2013-07-05 02:48:00,66.1,59.0,29.97,South,174,0.0,2.0,78,0.00,,---,0.00,VWS V14.01,2013-07-05 07:48:00,
2013-07-05 02:54:00,66.1,59.0,29.97,ENE,72,0.0,2.0,78,0.00,,---,0.00,VWS V14.01,2013-07-05 07:54:00,
2013-07-05 02:59:00,66.0,59.0,29.97,SE,125,0.0,2.0,78,0.00,,---,0.00,VWS V14.01,2013-07-05 07:59:00,
2013-07-05 03:00:00,66.0,59.0,29.97,SE,124,0.0,2.0,78,0.00,,---,0.00,VWS V14.01,2013-07-05 08:00:00,
2013-07-05 03:04:00,65.9,58.9,29.97,SE,140,0.0,2.0,78,0.00,,---,0.00,VWS V14.01,2013-07-05 08:04:00,
2013-07-05 03:09:00,65.9,58.9,29.97,ESE,123,0.0,2.0,78,0.00,,---,0.00,VWS V14.01,2013-07-05 08:09:00,
2013-07-05 03:14:00,65.7,58.7,29.97,SE,146,1.0,2.0,78,0.00,,---,0.00,VWS V14.01,2013-07-05 08:14:00,
2013-07-05 03:19:00,65.6,58.6,29.97,SE,131,1.0,3.0,78,0.00,,---,0.00,VWS V14.01,2013-07-05 08:19:00,
2013-07-05 03:24:00,65.5,58.8,29.97,SE,146,0.0,3.0,79,0.00,,---,0.00,VWS V14.01,2013-07-05 08:24:00,
2013-07-05 03:29:00,65.3,58.6,29.96,East,96,0.0,0.0,79,0.00,,---,0.00,VWS V14.01,2013-07-05 08:29:00,
2013-07-05 03:30:00,65.4,58.7,29.96,East,96,0.0,3.0,79,0.00,,---,0.00,VWS V14.01,2013-07-05 08:30:00,
2013-07-05 03:34:00,65.1,58.4,29.96,SSE,167,1.0,5.0,79,0.00,,---,0.00,VWS V14.01,2013-07-05 08:34:00,
2013-07-05 03:39:00,65.0,58.3,29.96,ESE,123,1.0,5.0,79,0.00,,---,0.00,VWS V14.01,2013-07-05 08:39:00,
2013-07-05 03:44:00,65.0,58.3,29.97,SE,139,1.0,5.0,79,0.00,,---,0.00,VWS V14.01,2013-07-05 08:44:00,
2013-07-05 03:50:00,65.1,58.4,29.97,SSW,203,1.0,5.0,79,0.00,,---,0.00,VWS V14.01,2013-07-05 08:50:00,
2013-07-05 03:55:00,65.0,58.3,29.97,SSW,208,0.0,5.0,79,0.00,,---,0.00,VWS V14.01,2013-07-05 08:55:00,
2013-07-05 04:00:00,65.0,58.3,29.97,South,174,1.0,5.0,79,0.00,,---,0.00,VWS V14.01,2013-07-05 09:00:00,
2013-07-05 04:01:00,65.0,58.0,29.97,East,99,0.0,1.0,78,0.00,,---,0.00,VWS V14.01,2013-07-05 09:01:00,
2013-07-05 04:06:00,65.0,58.0,29.97,SE,139,0.0,3.0,78,0.00,,---,0.00,VWS V14.01,2013-07-05 09:06:00,
2013-07-05 04:12:00,64.9,57.9,29.97,ESE,122,0.0,3.0,78,0.00,,---,0.00,VWS V14.01,2013-07-05 09:12:00,
2013-07-05 04:17:00,64.8,58.1,29.97,SW,217,0.0,3.0,79,0.00,,---,0.00,VWS V14.01,2013-07-05 09:17:00,
2013-07-05 04:22:00,64.5,58.2,29.97,SW,218,1.0,3.0,80,0.00,,---,0.00,VWS V14.01,2013-07-05 09:22:00,
2013-07-05 04:27:00,64.5,58.2,29.97,WSW,241,0.0,3.0,80,0.00,,---,0.00,VWS V14.01,2013-07-05 09:27:00,
2013-07-05 04:30:00,64.4,58.1,29.97,West,267,0.0,3.0,80,0.00,,---,0.00,VWS V14.01,2013-07-05 09:30:00,
2013-07-05 04:32:00,64.5,58.2,29.97,SSE,148,0.0,3.0,80,0.00,,---,0.00,VWS V14.01,2013-07-05 09:32:00,
2013-07-05 04:37:00,64.5,58.2,29.97,West,279,0.0,3.0,80,0.00,,---,0.00,VWS V14.01,2013-07-05 09:37:00,
2013-07-05 04:42:00,64.4,58.1,29.98,SSE,155,0.0,4.0,80,0.00,,---,0.00,VWS V14.01,2013-07-05 09:42:00,
2013-07-05 04:48:00,64.3,58.0,29.98,SW,226,1.0,4.0,80,0.00,,---,0.00,VWS V14.01,2013-07-05 09:48:00,
2013-07-05 04:53:00,64.2,57.9,29.98,SSE,153,0.0,4.0,80,0.00,,---,0.00,VWS V14.01,2013-07-05 09:53:00,
2013-07-05 04:58:00,64.3,58.0,29.98,WSW,249,0.0,4.0,80,0.00,,---,0.00,VWS V14.01,2013-07-05 09:58:00,
2013-07-05 05:00:00,64.4,58.1,29.98,South,169,2.0,4.0,80,0.00,,---,0.00,VWS V14.01,2013-07-05 10:00:00,
2013-07-05 05:03:00,64.4,58.1,29.98,South,185,0.0,2.0,80,0.00,,---,0.00,VWS V14.01,2013-07-05 10:03:00,
2013-07-05 05:08:00,64.3,58.0,29.98,SW,215,0.0,2.0,80,0.00,,---,0.00,VWS V14.01,2013-07-05 10:08:00,
2013-07-05 05:13:00,64.1,58.2,29.98,SE,139,0.0,2.0,81,0.00,,---,0.00,VWS V14.01,2013-07-05 10:13:00,
2013-07-05 05:18:00,63.9,58.0,29.98,SSW,201,0.0,2.0,81,0.00,,---,0.00,VWS V14.01,2013-07-05 10:18:00,
2013-07-05 05:23:00,63.8,57.9,29.98,SW,218,0.0,2.0,81,0.00,,---,0.00,VWS V14.01,2013-07-05 10:23:00,
2013-07-05 05:28:00,63.6,58.0,29.98,East,96,0.0,2.0,82,0.00,,---,0.00,VWS V14.01,2013-07-05 10:28:00,
2013-07-05 05:30:00,63.6,58.0,29.98,ESE,113,0.0,2.0,82,0.00,,---,0.00,VWS V14.01,2013-07-05 10:30:00,
2013-07-05 05:34:00,63.4,58.2,29.98,SE,141,0.0,2.0,83,0.00,,---,0.00,VWS V14.01,2013-07-05 10:34:00,
2013-07-05 05:39:00,63.1,57.9,29.98,SE,138,0.0,2.0,83,0.00,,---,0.00,VWS V14.01,2013-07-05 10:39:00,
2013-07-05 05:45:00,62.8,57.9,29.98,SSE,162,2.0,2.0,84,0.00,,---,0.00,VWS V14.01,2013-07-05 10:45:00,
2013-07-05 05:51:00,62.7,57.8,29.98,SSE,153,0.0,3.0,84,0.00,,---,0.00,VWS V14.01,2013-07-05 10:51:00,
2013-07-05 05:56:00,62.7,57.8,29.97,SW,225,1.0,3.0,84,0.00,,---,0.00,VWS V14.01,2013-07-05 10:56:00,
2013-07-05 06:00:00,62.8,57.9,29.98,South,176,0.0,3.0,84,0.00,,---,0.00,VWS V14.01,2013-07-05 11:00:00,
2013-07-05 06:01:00,62.8,57.9,29.97,SSE,155,2.0,4.0,84,0.00,,---,0.00,VWS V14.01,2013-07-05 11:01:00,
2013-07-05 06:06:00,62.8,57.9,29.97,East,94,1.0,5.0,84,0.00,,---,0.00,VWS V14.01,2013-07-05 11:06:00,
2013-07-05 06:11:00,62.8,57.9,29.97,SSW,210,0.0,5.0,84,0.00,,---,0.00,VWS V14.01,2013-07-05 11:11:00,
2013-07-05 06:16:00,62.9,58.0,29.97,East,94,0.0,5.0,84,0.00,,---,0.00,VWS V14.01,2013-07-05 11:16:00,
2013-07-05 06:22:00,63.1,57.9,29.97,ESE,120,1.0,5.0,83,0.00,,---,0.00,VWS V14.01,2013-07-05 11:22:00,
2013-07-05 06:27:00,63.2,58.0,29.98,ESE,120,0.0,5.0,83,0.00,,---,0.00,VWS V14.01,2013-07-05 11:27:00,
2013-07-05 06:30:00,63.2,58.0,29.98,SSE,151,0.0,5.0,83,0.00,,---,0.00,VWS V14.01,2013-07-05 11:30:00,
2013-07-05 06:32:00,63.2,58.0,29.98,SE,139,0.0,4.0,83,0.00,,---,0.00,VWS V14.01,2013-07-05 11:32:00,
2013-07-05 06:37:00,63.5,58.2,29.98,ENE,72,0.0,4.0,83,0.00,,---,0.00,VWS V14.01,2013-07-05 11:37:00,
2013-07-05 06:42:00,64.1,58.5,29.98,SE,125,2.0,4.0,82,0.00,,---,0.00,VWS V14.01,2013-07-05 11:42:00,
2013-07-05 06:48:00,64.6,58.7,29.98,South,177,2.0,4.0,81,0.00,,---,0.00,VWS V14.01,2013-07-05 11:48:00,
2013-07-05 06:53:00,65.2,58.9,29.98,South,184,2.0,4.0,80,0.00,,---,0.00,VWS V14.01,2013-07-05 11:53:00,
2013-07-05 06:58:00,65.7,59.0,29.98,South,188,0.0,4.0,79,0.00,,---,0.00,VWS V14.01,2013-07-05 11:58:00,
2013-07-05 07:00:00,65.8,59.1,29.98,SSE,155,1.0,4.0,79,0.00,,---,0.00,VWS V14.01,2013-07-05 12:00:00,
2013-07-05 07:03:00,66.0,59.0,29.98,SSE,160,0.0,2.0,78,0.00,,---,0.00,VWS V14.01,2013-07-05 12:03:00,
2013-07-05 07:09:00,66.2,59.2,29.98,SSE,148,0.0,4.0,78,0.00,,---,0.00,VWS V14.01,2013-07-05 12:09:00,
2013-07-05 07:14:00,66.6,59.2,29.98,ESE,115,2.0,4.0,77,0.00,,---,0.00,VWS V14.01,2013-07-05 12:14:00,
2013-07-05 07:19:00,66.7,59.3,29.98,SSE,163,2.0,4.0,77,0.00,,---,0.00,VWS V14.01,2013-07-05 12:19:00,
2013-07-05 07:24:00,67.1,59.7,29.98,SE,143,3.0,4.0,77,0.00,,---,0.00,VWS V14.01,2013-07-05 12:24:00,
2013-07-05 07:29:00,67.3,59.8,29.98,SE,142,2.0,5.0,77,0.00,,---,0.00,VWS V14.01,2013-07-05 12:29:00,
2013-07-05 07:30:00,67.3,59.8,29.98,SE,142,2.0,5.0,77,0.00,,---,0.00,VWS V14.01,2013-07-05 12:30:00,
2013-07-05 07:34:00,67.6,60.1,29.98,South,181,1.0,4.0,77,0.00,,---,0.00,VWS V14.01,2013-07-05 12:34:00,
2013-07-05 07:39:00,67.9,60.1,29.98,SSW,194,1.0,4.0,76,0.00,,---,0.00,VWS V14.01,2013-07-05 12:39:00,
2013-07-05 07:44:00,68.2,60.0,29.99,ESE,122,1.0,6.0,75,0.00,,---,0.00,VWS V14.01,2013-07-05 12:44:00,
2013-07-05 07:49:00,68.5,60.3,29.99,SE,142,0.0,6.0,75,0.00,,---,0.00,VWS V14.01,2013-07-05 12:49:00,
2013-07-05 07:54:00,69.2,61.0,29.99,WSW,257,0.0,6.0,75,0.00,,---,0.00,VWS V14.01,2013-07-05 12:54:00,
2013-07-05 07:59:00,69.9,60.9,29.99,SE,141,1.0,2.0,73,0.00,,---,0.00,VWS V14.01,2013-07-05 12:59:00,
2013-07-05 08:00:00,69.8,61.2,29.99,ESE,113,2.0,6.0,74,0.00,,---,0.00,VWS V14.01,2013-07-05 13:00:00,
2013-07-05 08:04:00,70.1,61.0,29.99,SSW,205,0.0,4.0,73,0.00,,---,0.00,VWS V14.01,2013-07-05 13:04:00,
2013-07-05 08:10:00,70.6,61.1,29.99,SSE,154,0.0,4.0,72,0.00,,---,0.00,VWS V14.01,2013-07-05 13:10:00,
2013-07-05 08:15:00,71.0,61.5,29.99,SW,228,5.0,5.0,72,0.00,,---,0.00,VWS V14.01,2013-07-05 13:15:00,
2013-07-05 08:20:00,71.4,61.9,29.99,South,183,0.0,5.0,72,0.00,,---,0.00,VWS V14.01,2013-07-05 13:20:00,
2013-07-05 08:25:00,71.8,61.9,29.99,ESE,123,1.0,5.0,71,0.00,,---,0.00,VWS V14.01,2013-07-05 13:25:00,
2013-07-05 08:30:00,72.3,62.4,30.00,South,187,2.0,4.0,71,0.00,,---,0.00,VWS V14.01,2013-07-05 13:30:00,
2013-07-05 08:35:00,72.6,62.3,30.00,SSW,204,1.0,4.0,70,0.00,,---,0.00,VWS V14.01,2013-07-05 13:35:00,
2013-07-05 08:40:00,73.0,62.2,30.00,East,91,1.0,4.0,69,0.00,,---,0.00,VWS V14.01,2013-07-05 13:40:00,
2013-07-05 08:45:00,73.6,62.4,30.00,SW,235,2.0,4.0,68,0.00,,---,0.00,VWS V14.01,2013-07-05 13:45:00,
2013-07-05 08:50:00,73.8,62.6,30.00,ESE,113,2.0,4.0,68,0.00,,---,0.00,VWS V14.01,2013-07-05 13:50:00,
2013-07-05 08:55:00,74.0,62.8,29.99,ESE,118,1.0,5.0,68,0.00,,---,0.00,VWS V14.01,2013-07-05 13:55:00,
2013-07-05 09:00:00,74.1,62.0,29.99,SE,139,2.0,6.0,66,0.00,,---,0.00,VWS V14.01,2013-07-05 14:00:00,
2013-07-05 09:01:00,74.1,62.0,29.99,SSE,158,3.0,3.0,66,0.00,,---,0.00,VWS V14.01,2013-07-05 14:01:00,
2013-07-05 09:07:00,74.6,62.9,29.99,SE,131,1.0,6.0,67,0.00,,---,0.00,VWS V14.01,2013-07-05 14:07:00,
2013-07-05 09:12:00,74.7,62.6,29.99,SE,132,4.0,10.0,66,0.00,,---,0.00,VWS V14.01,2013-07-05 14:12:00,
2013-07-05 09:17:00,75.3,63.2,29.99,South,188,0.0,10.0,66,0.00,,---,0.00,VWS V14.01,2013-07-05 14:17:00,
2013-07-05 09:22:00,76.2,63.1,29.99,SW,224,4.0,10.0,64,0.00,,---,0.00,VWS V14.01,2013-07-05 14:22:00,
2013-07-05 09:27:00,76.4,62.9,29.99,SSW,211,3.0,10.0,63,0.00,,---,0.00,VWS V14.01,2013-07-05 14:27:00,
2013-07-05 09:30:00,76.5,62.5,29.99,WSW,246,3.0,10.0,62,0.00,,---,0.00,VWS V14.01,2013-07-05 14:30:00,
2013-07-05 09:32:00,76.6,63.1,29.99,South,174,1.0,4.0,63,0.00,,---,0.00,VWS V14.01,2013-07-05 14:32:00,
2013-07-05 09:37:00,77.2,64.5,29.98,ESE,120,0.0,4.0,65,0.00,,---,0.00,VWS V14.01,2013-07-05 14:37:00,
2013-07-05 09:42:00,77.7,63.2,29.98,SSE,160,3.0,6.0,61,0.00,,---,0.00,VWS V14.01,2013-07-05 14:42:00,
2013-07-05 09:47:00,77.5,63.9,29.98,ESE,123,2.0,6.0,63,0.00,,---,0.00,VWS V14.01,2013-07-05 14:47:00,
2013-07-05 09:52:00,77.7,63.2,29.98,ESE,115,0.0,7.0,61,0.00,,---,0.00,VWS V14.01,2013-07-05 14:52:00,
2013-07-05 09:57:00,78.0,63.5,29.98,NNE,26,2.0,7.0,61,0.00,,---,0.00,VWS V14.01,2013-07-05 14:57:00,
2013-07-05 10:00:00,78.0,63.0,29.98,ENE,58,1.0,8.0,60,0.00,,---,0.00,VWS V14.01,2013-07-05 15:00:00,
2013-07-05 10:03:00,78.2,63.7,29.98,ESE,107,5.0,7.0,61,0.00,,---,0.00,VWS V14.01,2013-07-05 15:03:00,
2013-07-05 10:08:00,78.1,63.6,29.98,SW,221,5.0,9.0,61,0.00,,---,0.00,VWS V14.01,2013-07-05 15:08:00,
2013-07-05 10:13:00,78.7,64.1,29.98,East,89,1.0,9.0,61,0.00,,---,0.00,VWS V14.01,2013-07-05 15:13:00,
2013-07-05 10:18:00,79.6,64.0,29.97,SE,127,3.0,9.0,59,0.00,,---,0.00,VWS V14.01,2013-07-05 15:18:00,
2013-07-05 10:23:00,80.0,63.9,29.97,South,172,2.0,9.0,58,0.00,,---,0.00,VWS V14.01,2013-07-05 15:23:00,
2013-07-05 10:28:00,79.9,64.8,29.97,SSE,150,3.0,9.0,60,0.00,,---,0.00,VWS V14.01,2013-07-05 15:28:00,
2013-07-05 10:30:00,80.0,64.9,29.97,WSW,245,1.0,9.0,60,0.00,,---,0.00,VWS V14.01,2013-07-05 15:30:00,
2013-07-05 10:33:00,80.3,64.2,29.97,SSW,192,3.0,9.0,58,0.00,,---,0.00,VWS V14.01,2013-07-05 15:33:00,
2013-07-05 10:38:00,80.3,65.6,29.97,SW,217,5.0,9.0,61,0.00,,---,0.00,VWS V14.01,2013-07-05 15:38:00,
2013-07-05 10:43:00,80.5,64.9,29.97,ESE,113,1.0,9.0,59,0.00,,---,0.00,VWS V14.01,2013-07-05 15:43:00,
2013-07-05 10:48:00,80.7,64.1,29.97,SE,136,3.0,9.0,57,0.00,,---,0.00,VWS V14.01,2013-07-05 15:48:00,
2013-07-05 10:52:00,80.9,64.8,29.97,ESE,113,2.0,9.0,58,0.00,,---,0.00,VWS V14.01,2013-07-05 15:52:00,
2013-07-05 10:57:00,81.4,65.2,29.97,South,176,2.0,9.0,58,0.00,,---,0.00,VWS V14.01,2013-07-05 15:57:00,
2013-07-05 11:00:00,81.6,65.9,29.97,SE,131,5.0,9.0,59,0.00,,---,0.00,VWS V14.01,2013-07-05 16:00:00,
2013-07-05 11:02:00,81.8,66.1,29.97,SE,146,2.0,5.0,59,0.00,,---,0.00,VWS V14.01,2013-07-05 16:02:00,
2013-07-05 11:07:00,82.2,66.5,29.97,SSE,153,5.0,7.0,59,0.00,,---,0.00,VWS V14.01,2013-07-05 16:07:00,
2013-07-05 11:12:00,82.1,65.9,29.97,SSW,207,4.0,7.0,58,0.00,,---,0.00,VWS V14.01,2013-07-05 16:12:00,
2013-07-05 11:17:00,82.1,64.3,29.97,SE,138,1.0,10.0,55,0.00,,---,0.00,VWS V14.01,2013-07-05 16:17:00,
2013-07-05 11:22:00,82.4,65.1,29.97,ESE,115,5.0,10.0,56,0.00,,---,0.00,VWS V14.01,2013-07-05 16:22:00,
2013-07-05 11:27:00,82.7,65.9,29.96,SSW,204,5.0,10.0,57,0.00,,---,0.00,VWS V14.01,2013-07-05 16:27:00,
2013-07-05 11:30:00,82.7,64.4,29.97,SSW,206,5.0,10.0,54,0.00,,---,0.00,VWS V14.01,2013-07-05 16:30:00,
2013-07-05 11:33:00,82.4,63.6,29.97,West,271,2.0,10.0,53,0.00,,---,0.00,VWS V14.01,2013-07-05 16:33:00,
2013-07-05 11:38:00,82.9,65.1,29.96,SE,145,1.0,10.0,55,0.00,,---,0.00,VWS V14.01,2013-07-05 16:38:00,
2013-07-05 11:43:00,83.4,65.0,29.96,ENE,75,4.0,10.0,54,0.00,,---,0.00,VWS V14.01,2013-07-05 16:43:00,
2013-07-05 11:48:00,83.4,65.6,29.96,ESE,122,4.0,10.0,55,0.00,,---,0.00,VWS V14.01,2013-07-05 16:48:00,
2013-07-05 11:53:00,83.5,64.6,29.96,SSW,194,4.0,10.0,53,0.00,,---,0.00,VWS V14.01,2013-07-05 16:53:00,
2013-07-05 11:58:00,83.9,64.9,29.96,SE,134,1.0,10.0,53,0.00,,---,0.00,VWS V14.01,2013-07-05 16:58:00,
2013-07-05 12:00:00,83.9,64.9,29.96,South,191,7.0,10.0,53,0.00,,---,0.00,VWS V14.01,2013-07-05 17:00:00,
2013-07-05 12:03:00,83.9,65.5,29.96,SSE,164,8.0,9.0,54,0.00,,---,0.00,VWS V14.01,2013-07-05 17:03:00,
2013-07-05 12:08:00,83.9,64.9,29.96,SSW,211,1.0,9.0,53,0.00,,---,0.00,VWS V14.01,2013-07-05 17:08:00,
2013-07-05 12:13:00,84.3,65.3,29.96,SW,229,3.0,9.0,53,0.00,,---,0.00,VWS V14.01,2013-07-05 17:13:00,
2013-07-05 12:14:00,84.3,65.3,29.96,West,264,1.0,9.0,53,0.00,,---,0.00,VWS V14.01,2013-07-05 17:14:00,
2013-07-05 12:19:00,84.1,64.0,29.96,SSE,162,4.0,10.0,51,0.00,,---,0.00,VWS V14.01,2013-07-05 17:19:00,
2013-07-05 12:24:00,84.3,64.8,29.96,West,259,5.0,10.0,52,0.00,,---,0.00,VWS V14.01,2013-07-05 17:24:00,
2013-07-05 12:29:00,84.3,65.3,29.95,East,79,5.0,5.0,53,0.00,,---,0.00,VWS V14.01,2013-07-05 17:29:00,
2013-07-05 12:30:00,84.3,65.3,29.95,East,92,1.0,10.0,53,0.00,,---,0.00,VWS V14.01,2013-07-05 17:30:00,
2013-07-05 12:34:00,84.4,65.4,29.95,SSW,194,2.0,9.0,53,0.00,,---,0.00,VWS V14.01,2013-07-05 17:34:00,
2013-07-05 12:39:00,84.6,65.6,29.95,SSE,151,4.0,9.0,53,0.00,,---,0.00,VWS V14.01,2013-07-05 17:39:00,
2013-07-05 12:40:00,84.6,65.1,29.95,SSW,200,5.0,9.0,52,0.00,,---,0.00,VWS V14.01,2013-07-05 17:40:00,
2013-07-05 12:45:00,84.8,64.7,29.95,ESE,120,7.0,12.0,51,0.00,,---,0.00,VWS V14.01,2013-07-05 17:45:00,
2013-07-05 12:50:00,84.7,65.1,29.95,ESE,107,3.0,12.0,52,0.00,,---,0.00,VWS V14.01,2013-07-05 17:50:00,
2013-07-05 12:55:00,84.7,66.8,29.95,WSW,243,2.0,12.0,55,0.00,,---,0.00,VWS V14.01,2013-07-05 17:55:00,
2013-07-05 13:00:00,85.4,66.3,29.95,ESE,117,2.0,4.0,53,0.00,,---,0.00,VWS V14.01,2013-07-05 18:00:00,
2013-07-05 13:05:00,86.0,66.9,29.94,SE,145,2.0,5.0,53,0.00,,---,0.00,VWS V14.01,2013-07-05 18:05:00,
2013-07-05 13:10:00,85.9,65.7,29.94,South,174,3.0,10.0,51,0.00,,---,0.00,VWS V14.01,2013-07-05 18:10:00,
2013-07-05 13:11:00,85.9,65.7,29.94,SW,218,7.0,10.0,51,0.00,,---,0.00,VWS V14.01,2013-07-05 18:11:00,
2013-07-05 13:16:00,85.7,65.5,29.95,East,93,4.0,10.0,51,0.00,,---,0.00,VWS V14.01,2013-07-05 18:16:00,
2013-07-05 13:21:00,85.3,65.1,29.94,ESE,103,8.0,12.0,51,0.00,,---,0.00,VWS V14.01,2013-07-05 18:21:00,
2013-07-05 13:26:00,85.3,65.7,29.94,ENE,57,5.0,13.0,52,0.00,,---,0.00,VWS V14.01,2013-07-05 18:26:00,
2013-07-05 13:30:00,85.2,65.6,29.94,SSE,158,2.0,13.0,52,0.00,,---,0.00,VWS V14.01,2013-07-05 18:30:00,
2013-07-05 13:31:00,85.4,66.3,29.94,West,273,7.0,9.0,53,0.00,,---,0.00,VWS V14.01,2013-07-05 18:31:00,
2013-07-05 13:36:00,85.6,64.8,29.94,South,174,6.0,11.0,50,0.00,,---,0.00,VWS V14.01,2013-07-05 18:36:00,
2013-07-05 13:42:00,85.7,65.5,29.94,SE,141,0.0,11.0,51,0.00,,---,0.00,VWS V14.01,2013-07-05 18:42:00,
2013-07-05 13:47:00,86.5,66.2,29.94,South,179,2.0,11.0,51,0.00,,---,0.00,VWS V14.01,2013-07-05 18:47:00,
2013-07-05 13:52:00,86.8,67.1,29.94,SE,127,4.0,11.0,52,0.00,,---,0.00,VWS V14.01,2013-07-05 18:52:00,
2013-07-05 13:57:00,86.4,65.6,29.93,SSE,165,5.0,14.0,50,0.00,,---,0.00,VWS V14.01,2013-07-05 18:57:00,
2013-07-05 14:00:00,86.2,64.8,29.93,ESE,122,4.0,14.0,49,0.00,,---,0.00,VWS V14.01,2013-07-05 19:00:00,
2013-07-05 14:02:00,85.9,65.7,29.93,South,186,4.0,12.0,51,0.00,,---,0.00,VWS V14.01,2013-07-05 19:02:00,
2013-07-05 14:07:00,86.0,65.2,29.93,South,179,4.0,12.0,50,0.00,,---,0.00,VWS V14.01,2013-07-05 19:07:00,
2013-07-05 14:12:00,86.1,64.1,29.93,SE,128,2.0,14.0,48,0.00,,---,0.00,VWS V14.01,2013-07-05 19:12:00,
2013-07-05 14:17:00,86.0,65.2,29.93,SSE,168,2.0,14.0,50,0.00,,---,0.00,VWS V14.01,2013-07-05 19:17:00,
2013-07-05 14:22:00,86.0,65.2,29.93,SSW,195,2.0,14.0,50,0.00,,---,0.00,VWS V14.01,2013-07-05 19:22:00,
2013-07-05 14:27:00,86.6,65.2,29.93,ESE,120,5.0,14.0,49,0.00,,---,0.00,VWS V14.01,2013-07-05 19:27:00,
2013-07-05 14:28:00,86.6,65.2,29.93,South,181,3.0,14.0,49,0.00,,---,0.00,VWS V14.01,2013-07-05 19:28:00,
2013-07-05 14:30:00,86.6,65.8,29.93,SSW,212,1.0,14.0,50,0.00,,---,0.00,VWS V14.01,2013-07-05 19:30:00,
2013-07-05 14:33:00,86.7,64.1,29.93,SE,126,3.0,9.0,47,0.00,,---,0.00,VWS V14.01,2013-07-05 19:33:00,
2013-07-05 14:38:00,86.7,64.7,29.93,SSE,158,5.0,11.0,48,0.00,,---,0.00,VWS V14.01,2013-07-05 19:38:00,
2013-07-05 14:43:00,86.6,64.0,29.93,South,183,4.0,14.0,47,0.00,,---,0.00,VWS V14.01,2013-07-05 19:43:00,
2013-07-05 14:49:00,86.6,64.6,29.93,SE,134,3.0,14.0,48,0.00,,---,0.00,VWS V14.01,2013-07-05 19:49:00,
2013-07-05 14:54:00,86.5,63.9,29.93,East,82,3.0,14.0,47,0.00,,---,0.00,VWS V14.01,2013-07-05 19:54:00,
2013-07-05 14:59:00,86.4,63.8,29.93,ESE,122,9.0,14.0,47,0.00,,---,0.00,VWS V14.01,2013-07-05 19:59:00,
2013-07-05 15:00:00,86.4,63.8,29.93,ESE,109,7.0,14.0,47,0.00,,---,0.00,VWS V14.01,2013-07-05 20:00:00,
2013-07-05 15:04:00,86.5,64.5,29.93,East,91,3.0,10.0,48,0.00,,---,0.00,VWS V14.01,2013-07-05 20:04:00,
2013-07-05 15:09:00,87.0,65.0,29.93,SW,215,2.0,10.0,48,0.00,,---,0.00,VWS V14.01,2013-07-05 20:09:00,
2013-07-05 15:14:00,86.5,63.3,29.93,West,262,5.0,12.0,46,0.00,,---,0.00,VWS V14.01,2013-07-05 20:14:00,
2013-07-05 15:19:00,86.6,64.6,29.92,SE,140,3.0,12.0,48,0.00,,---,0.00,VWS V14.01,2013-07-05 20:19:00,
2013-07-05 15:24:00,87.0,62.5,29.93,SSE,148,4.0,12.0,44,0.00,,---,0.00,VWS V14.01,2013-07-05 20:24:00,
2013-07-05 15:29:00,86.6,62.8,29.92,South,177,3.0,5.0,45,0.00,,---,0.00,VWS V14.01,2013-07-05 20:29:00,
2013-07-05 15:30:00,86.7,62.8,29.92,South,179,4.0,15.0,45,0.00,,---,0.00,VWS V14.01,2013-07-05 20:30:00,
2013-07-05 15:34:00,86.3,62.5,29.92,SE,131,5.0,12.0,45,0.00,,---,0.00,VWS V14.01,2013-07-05 20:34:00,
2013-07-05 15:39:00,86.1,62.9,29.92,South,179,3.0,12.0,46,0.00,,---,0.00,VWS V14.01,2013-07-05 20:39:00,
2013-07-05 15:44:00,85.9,64.0,29.92,SSE,155,4.0,12.0,48,0.00,,---,0.00,VWS V14.01,2013-07-05 20:44:00,
2013-07-05 15:49:00,86.0,62.8,29.92,SW,217,3.0,12.0,46,0.00,,---,0.00,VWS V14.01,2013-07-05 20:49:00,
2013-07-05 15:55:00,86.3,63.7,29.92,South,191,0.0,12.0,47,0.00,,---,0.00,VWS V14.01,2013-07-05 20:55:00,
2013-07-05 16:00:00,86.6,62.8,29.92,NE,54,3.0,7.0,45,0.00,,---,0.00,VWS V14.01,2013-07-05 21:00:00,
2013-07-05 16:05:00,86.2,62.4,29.92,SSE,160,2.0,12.0,45,0.00,,---,0.00,VWS V14.01,2013-07-05 21:05:00,
2013-07-05 16:10:00,86.0,62.8,29.92,NNE,29,1.0,12.0,46,0.00,,---,0.00,VWS V14.01,2013-07-05 21:10:00,
2013-07-05 16:15:00,86.3,63.1,29.92,SSE,160,3.0,12.0,46,0.00,,---,0.00,VWS V14.01,2013-07-05 21:15:00,
2013-07-05 16:20:00,86.3,63.1,29.92,SW,222,3.0,12.0,46,0.00,,---,0.00,VWS V14.01,2013-07-05 21:20:00,
2013-07-05 16:25:00,86.3,63.7,29.92,SSW,204,4.0,12.0,47,0.00,,---,0.00,VWS V14.01,2013-07-05 21:25:00,
2013-07-05 16:30:00,85.8,62.7,29.92,SSW,203,5.0,14.0,46,0.00,,---,0.00,VWS V14.01,2013-07-05 21:30:00,
2013-07-05 16:35:00,85.2,62.7,29.92,SSE,155,3.0,14.0,47,0.00,,---,0.00,VWS V14.01,2013-07-05 21:35:00,
2013-07-05 16:40:00,85.3,62.8,29.92,South,190,6.0,15.0,47,0.00,,---,0.00,VWS V14.01,2013-07-05 21:40:00,
2013-07-05 16:45:00,85.9,63.3,29.92,South,170,5.0,15.0,47,0.00,,---,0.00,VWS V14.01,2013-07-05 21:45:00,
2013-07-05 16:50:00,86.1,63.5,29.91,SSW,197,3.0,15.0,47,0.00,,---,0.00,VWS V14.01,2013-07-05 21:50:00,
2013-07-05 16:51:00,86.0,64.0,29.91,ESE,118,5.0,15.0,48,0.00,,---,0.00,VWS V14.01,2013-07-05 21:51:00,
2013-07-05 16:56:00,86.0,63.4,29.91,SE,132,3.0,15.0,47,0.00,,---,0.00,VWS V14.01,2013-07-05 21:56:00,
2013-07-05 17:00:00,86.0,64.0,29.91,West,264,4.0,15.0,48,0.00,,---,0.00,VWS V14.01,2013-07-05 22:00:00,
2013-07-05 17:01:00,86.1,63.5,29.92,WNW,298,1.0,9.0,47,0.00,,---,0.00,VWS V14.01,2013-07-05 22:01:00,
2013-07-05 17:02:00,86.1,63.5,29.91,WSW,243,5.0,9.0,47,0.00,,---,0.00,VWS V14.01,2013-07-05 22:02:00,
2013-07-05 17:07:00,86.2,63.0,29.92,SSW,203,2.0,12.0,46,0.00,,---,0.00,VWS V14.01,2013-07-05 22:07:00,
2013-07-05 17:12:00,86.3,62.5,29.91,SE,136,5.0,13.0,45,0.00,,---,0.00,VWS V14.01,2013-07-05 22:12:00,
2013-07-05 17:17:00,85.9,62.1,29.91,SSE,148,6.0,14.0,45,0.00,,---,0.00,VWS V14.01,2013-07-05 22:17:00,
2013-07-05 17:22:00,85.6,62.5,29.91,SW,226,3.0,14.0,46,0.00,,---,0.00,VWS V14.01,2013-07-05 22:22:00,
2013-07-05 17:28:00,84.7,61.7,29.91,SW,221,5.0,18.0,46,0.00,,---,0.00,VWS V14.01,2013-07-05 22:28:00,
2013-07-05 17:30:00,84.6,62.2,29.91,WSW,252,3.0,18.0,47,0.00,,---,0.00,VWS V14.01,2013-07-05 22:30:00,
2013-07-05 17:33:00,84.8,62.3,29.90,ENE,77,2.0,8.0,47,0.00,,---,0.00,VWS V14.01,2013-07-05 22:33:00,
2013-07-05 17:38:00,85.2,62.7,29.90,East,93,3.0,10.0,47,0.00,,---,0.00,VWS V14.01,2013-07-05 22:38:00,
2013-07-05 17:43:00,85.4,62.9,29.90,West,276,4.0,10.0,47,0.00,,---,0.00,VWS V14.01,2013-07-05 22:43:00,
2013-07-05 17:48:00,85.5,63.0,29.91,East,98,9.0,10.0,47,0.00,,---,0.00,VWS V14.01,2013-07-05 22:48:00,
2013-07-05 17:53:00,85.4,62.9,29.90,ESE,104,4.0,10.0,47,0.00,,---,0.00,VWS V14.01,2013-07-05 22:53:00,
2013-07-05 17:58:00,85.4,63.5,29.90,SSW,210,0.0,10.0,48,0.00,,---,0.00,VWS V14.01,2013-07-05 22:58:00,
2013-07-05 18:00:00,85.4,63.5,29.90,SSW,210,0.0,10.0,48,0.00,,---,0.00,VWS V14.01,2013-07-05 23:00:00,
2013-07-05 18:03:00,85.9,64.0,29.90,SSW,211,4.0,4.0,48,0.00,,---,0.00,VWS V14.01,2013-07-05 23:03:00,
2013-07-05 18:08:00,86.0,64.0,29.90,SE,129,3.0,5.0,48,0.00,,---,0.00,VWS V14.01,2013-07-05 23:08:00,
2013-07-05 18:14:00,85.9,64.5,29.90,SSE,156,4.0,7.0,49,0.00,,---,0.00,VWS V14.01,2013-07-05 23:14:00,
2013-07-05 18:19:00,85.6,63.7,29.90,ESE,106,5.0,10.0,48,0.00,,---,0.00,VWS V14.01,2013-07-05 23:19:00,
2013-07-05 18:24:00,85.2,63.3,29.90,SE,136,7.0,10.0,48,0.00,,---,0.00,VWS V14.01,2013-07-05 23:24:00,
2013-07-05 18:29:00,85.1,63.2,29.90,SE,134,1.0,4.0,48,0.00,,---,0.00,VWS V14.01,2013-07-05 23:29:00,
2013-07-05 18:30:00,85.1,63.2,29.90,SE,138,1.0,4.0,48,0.00,,---,0.00,VWS V14.01,2013-07-05 23:30:00,
2013-07-05 18:35:00,85.0,63.7,29.90,SSE,151,4.0,8.0,49,0.00,,---,0.00,VWS V14.01,2013-07-05 23:35:00,
2013-07-05 18:40:00,84.8,63.5,29.90,SE,141,5.0,9.0,49,0.00,,---,0.00,VWS V14.01,2013-07-05 23:40:00,
2013-07-05 18:45:00,84.8,64.1,29.90,SSW,194,2.0,9.0,50,0.00,,---,0.00,VWS V14.01,2013-07-05 23:45:00,
2013-07-05 18:50:00,84.7,64.6,29.90,SE,136,6.0,9.0,51,0.00,,---,0.00,VWS V14.01,2013-07-05 23:50:00,
2013-07-05 18:51:00,84.7,64.0,29.90,South,184,3.0,9.0,50,0.00,,---,0.00,VWS V14.01,2013-07-05 23:51:00,
2013-07-05 18:56:00,84.5,64.4,29.90,SSE,167,4.0,9.0,51,0.00,,---,0.00,VWS V14.01,2013-07-05 23:56:00,
2013-07-05 19:00:00,84.4,64.3,29.90,SSW,193,3.0,9.0,51,0.00,,---,0.00,VWS V14.01,2013-07-06 00:00:00,
2013-07-05 19:01:00,84.3,63.7,29.90,SSW,204,2.0,7.0,50,0.00,,---,0.00,VWS V14.01,2013-07-06 00:01:00,
2013-07-05 19:06:00,84.0,64.5,29.90,SSW,203,2.0,7.0,52,0.00,,---,0.00,VWS V14.01,2013-07-06 00:06:00,
2013-07-05 19:11:00,83.7,64.2,29.90,SE,134,0.0,8.0,52,0.00,,---,0.00,VWS V14.01,2013-07-06 00:11:00,
2013-07-05 19:16:00,83.3,63.3,29.90,ESE,104,4.0,8.0,51,0.00,,---,0.00,VWS V14.01,2013-07-06 00:16:00,
2013-07-05 19:21:00,83.0,63.0,29.90,SSE,148,3.0,8.0,51,0.00,,---,0.00,VWS V14.01,2013-07-06 00:21:00,
2013-07-05 19:26:00,82.7,62.8,29.90,South,176,3.0,8.0,51,0.00,,---,0.00,VWS V14.01,2013-07-06 00:26:00,
2013-07-05 19:30:00,82.5,62.6,29.90,SSE,154,3.0,8.0,51,0.00,,---,0.00,VWS V14.01,2013-07-06 00:30:00,
2013-07-05 19:31:00,82.4,63.0,29.90,SE,136,2.0,5.0,52,0.00,,---,0.00,VWS V14.01,2013-07-06 00:31:00,
2013-07-05 19:36:00,82.2,62.8,29.90,WSW,238,1.0,6.0,52,0.00,,---,0.00,VWS V14.01,2013-07-06 00:36:00,
2013-07-05 19:41:00,82.0,63.2,29.90,SW,219,0.0,6.0,53,0.00,,---,0.00,VWS V14.01,2013-07-06 00:41:00,
2013-07-05 19:47:00,81.6,62.8,29.90,ESE,117,1.0,6.0,53,0.00,,---,0.00,VWS V14.01,2013-07-06 00:47:00,
2013-07-05 19:52:00,81.4,63.2,29.91,SE,134,1.0,6.0,54,0.00,,---,0.00,VWS V14.01,2013-07-06 00:52:00,
2013-07-05 19:57:00,81.2,63.5,29.91,SE,143,1.0,6.0,55,0.00,,---,0.00,VWS V14.01,2013-07-06 00:57:00,
2013-07-05 20:00:00,81.1,63.4,29.90,East,98,1.0,6.0,55,0.00,,---,0.00,VWS V14.01,2013-07-06 01:00:00,
2013-07-05 20:02:00,81.0,63.8,29.90,SE,145,1.0,2.0,56,0.00,,---,0.00,VWS V14.01,2013-07-06 01:02:00,
2013-07-05 20:07:00,80.8,63.7,29.90,ESE,119,0.0,4.0,56,0.00,,---,0.00,VWS V14.01,2013-07-06 01:07:00,
2013-07-05 20:12:00,80.5,63.9,29.91,South,186,2.0,4.0,57,0.00,,---,0.00,VWS V14.01,2013-07-06 01:12:00,
2013-07-05 20:17:00,80.3,64.2,29.91,SE,143,0.0,4.0,58,0.00,,---,0.00,VWS V14.01,2013-07-06 01:17:00,
2013-07-05 20:18:00,80.2,64.1,29.91,East,82,0.0,4.0,58,0.00,,---,0.00,VWS V14.01,2013-07-06 01:18:00,
2013-07-05 20:23:00,79.9,63.8,29.90,SW,218,1.0,4.0,58,0.00,,---,0.00,VWS V14.01,2013-07-06 01:23:00,
2013-07-05 20:28:00,79.7,64.1,29.90,SE,132,1.0,4.0,59,0.00,,---,0.00,VWS V14.01,2013-07-06 01:28:00,
2013-07-05 20:30:00,79.6,63.5,29.90,SE,141,2.0,4.0,58,0.00,,---,0.00,VWS V14.01,2013-07-06 01:30:00,
2013-07-05 20:33:00,79.3,63.7,29.90,SSE,166,0.0,4.0,59,0.00,,---,0.00,VWS V14.01,2013-07-06 01:33:00,
2013-07-05 20:39:00,79.0,63.9,29.90,ENE,74,1.0,4.0,60,0.00,,---,0.00,VWS V14.01,2013-07-06 01:39:00,
2013-07-05 20:44:00,78.7,64.1,29.91,ESE,120,1.0,4.0,61,0.00,,---,0.00,VWS V14.01,2013-07-06 01:44:00,
2013-07-05 20:49:00,78.4,64.3,29.91,SSW,198,3.0,4.0,62,0.00,,---,0.00,VWS V14.01,2013-07-06 01:49:00,
2013-07-05 20:54:00,78.0,64.4,29.90,SSW,196,0.0,4.0,63,0.00,,---,0.00,VWS V14.01,2013-07-06 01:54:00,
2013-07-05 20:59:00,77.8,64.2,29.91,East,96,0.0,0.0,63,0.00,,---,0.00,VWS V14.01,2013-07-06 01:59:00,
2013-07-05 21:00:00,77.8,64.2,29.90,East,95,0.0,4.0,63,0.00,,---,0.00,VWS V14.01,2013-07-06 02:00:00,
2013-07-05 21:04:00,77.5,64.4,29.91,SE,138,1.0,2.0,64,0.00,,---,0.00,VWS V14.01,2013-07-06 02:04:00,
2013-07-05 21:09:00,77.2,64.5,29.90,SSE,165,0.0,3.0,65,0.00,,---,0.00,VWS V14.01,2013-07-06 02:09:00,
2013-07-05 21:14:00,76.9,64.2,29.91,SE,142,0.0,3.0,65,0.00,,---,0.00,VWS V14.01,2013-07-06 02:14:00,
2013-07-05 21:19:00,76.7,64.1,29.91,ESE,113,1.0,3.0,65,0.00,,---,0.00,VWS V14.01,2013-07-06 02:19:00,
2013-07-05 21:25:00,76.4,63.8,29.91,ESE,120,1.0,3.0,65,0.00,,---,0.00,VWS V14.01,2013-07-06 02:25:00,
2013-07-05 21:30:00,76.2,64.0,29.91,SSE,156,1.0,1.0,66,0.00,,---,0.00,VWS V14.01,2013-07-06 02:30:00,
2013-07-05 21:35:00,76.0,63.8,29.91,SE,129,1.0,3.0,66,0.00,,---,0.00,VWS V14.01,2013-07-06 02:35:00,
2013-07-05 21:40:00,75.7,64.0,29.91,East,101,1.0,3.0,67,0.00,,---,0.00,VWS V14.01,2013-07-06 02:40:00,
2013-07-05 21:45:00,75.5,63.8,29.91,South,174,0.0,3.0,67,0.00,,---,0.00,VWS V14.01,2013-07-06 02:45:00,
2013-07-05 21:50:00,75.4,63.7,29.92,ESE,117,0.0,3.0,67,0.00,,---,0.00,VWS V14.01,2013-07-06 02:50:00,
2013-07-05 21:55:00,75.3,63.6,29.92,SE,136,0.0,3.0,67,0.00,,---,0.00,VWS V14.01,2013-07-06 02:55:00,
2013-07-05 22:00:00,75.1,63.8,29.92,SSE,156,0.0,1.0,68,0.00,,---,0.00,VWS V14.01,2013-07-06 03:00:00,
2013-07-05 22:05:00,75.0,63.7,29.92,South,191,1.0,3.0,68,0.00,,---,0.00,VWS V14.01,2013-07-06 03:05:00,
2013-07-05 22:11:00,74.9,63.6,29.93,SSW,193,2.0,5.0,68,0.00,,---,0.00,VWS V14.01,2013-07-06 03:11:00,
2013-07-05 22:16:00,74.8,63.5,29.93,SSE,158,3.0,5.0,68,0.00,,---,0.00,VWS V14.01,2013-07-06 03:16:00,
2013-07-05 22:21:00,74.6,63.3,29.93,ESE,113,0.0,5.0,68,0.00,,---,0.00,VWS V14.01,2013-07-06 03:21:00,
2013-07-05 22:26:00,74.6,63.8,29.93,SE,131,3.0,6.0,69,0.00,,---,0.00,VWS V14.01,2013-07-06 03:26:00,
2013-07-05 22:29:00,74.6,63.8,29.93,SE,142,1.0,1.0,69,0.00,,---,0.00,VWS V14.01,2013-07-06 03:29:00,
2013-07-05 22:30:00,74.6,63.8,29.93,ESE,122,1.0,6.0,69,0.00,,---,0.00,VWS V14.01,2013-07-06 03:30:00,
2013-07-05 22:32:00,74.4,63.6,29.93,SE,129,2.0,2.0,69,0.00,,---,0.00,VWS V14.01,2013-07-06 03:32:00,
2013-07-05 22:34:00,74.4,63.6,29.93,ESE,122,3.0,4.0,69,0.00,,---,0.00,VWS V14.01,2013-07-06 03:34:00,
2013-07-05 22:40:00,74.4,63.6,29.93,South,176,1.0,6.0,69,0.00,,---,0.00,VWS V14.01,2013-07-06 03:40:00,
2013-07-05 22:45:00,74.1,63.7,29.93,South,169,0.0,6.0,70,0.00,,---,0.00,VWS V14.01,2013-07-06 03:45:00,
2013-07-05 22:50:00,73.9,63.5,29.93,SE,142,0.0,6.0,70,0.00,,---,0.00,VWS V14.01,2013-07-06 03:50:00,
2013-07-05 22:55:00,73.7,63.7,29.93,SE,129,1.0,6.0,71,0.00,,---,0.00,VWS V14.01,2013-07-06 03:55:00,
2013-07-05 23:00:00,73.5,63.5,29.93,SE,142,1.0,2.0,71,0.00,,---,0.00,VWS V14.01,2013-07-06 04:00:00,
2013-07-05 23:01:00,73.5,63.5,29.93,East,101,1.0,2.0,71,0.00,,---,0.00,VWS V14.01,2013-07-06 04:01:00,
2013-07-05 23:02:00,73.5,63.5,29.93,SSE,147,2.0,2.0,71,0.00,,---,0.00,VWS V14.01,2013-07-06 04:02:00,
2013-07-05 23:03:00,73.5,63.5,29.93,SSE,163,3.0,3.0,71,0.00,,---,0.00,VWS V14.01,2013-07-06 04:03:00,
2013-07-05 23:08:00,73.3,63.7,29.93,SSE,154,0.0,4.0,72,0.00,,---,0.00,VWS V14.01,2013-07-06 04:08:00,
2013-07-05 23:13:00,73.2,63.6,29.93,SE,131,2.0,5.0,72,0.00,,---,0.00,VWS V14.01,2013-07-06 04:13:00,
2013-07-05 23:19:00,73.1,63.5,29.93,South,174,1.0,5.0,72,0.00,,---,0.00,VWS V14.01,2013-07-06 04:19:00,
2013-07-05 23:24:00,73.0,63.5,29.93,SSW,212,2.0,5.0,72,0.00,,---,0.00,VWS V14.01,2013-07-06 04:24:00,
2013-07-05 23:29:00,72.8,63.7,29.93,SW,232,0.0,5.0,73,0.00,,---,0.00,VWS V14.01,2013-07-06 04:29:00,
2013-07-05 23:30:00,72.8,63.7,29.93,SW,232,0.0,5.0,73,0.00,,---,0.00,VWS V14.01,2013-07-06 04:30:00,
2013-07-05 23:34:00,72.7,63.5,29.93,SSE,157,0.0,3.0,73,0.00,,---,0.00,VWS V14.01,2013-07-06 04:34:00,
2013-07-05 23:39:00,72.6,63.5,29.93,SSE,160,1.0,6.0,73,0.00,,---,0.00,VWS V14.01,2013-07-06 04:39:00,
2013-07-05 23:44:00,72.5,63.4,29.93,SE,146,3.0,6.0,73,0.00,,---,0.00,VWS V14.01,2013-07-06 04:44:00,
2013-07-05 23:49:00,72.4,63.3,29.94,ENE,77,1.0,6.0,73,0.00,,---,0.00,VWS V14.01,2013-07-06 04:49:00,
2013-07-05 23:54:00,72.2,63.5,29.94,East,81,1.0,6.0,74,0.00,,---,0.00,VWS V14.01,2013-07-06 04:54:00,
2013-07-05 23:59:00,72.2,63.5,29.94,SE,129,1.0,2.0,74,0.00,,---,0.00,VWS V14.01,2013-07-06 04:59:00,